Temperature
9 9 9 8 8 8 8 9 8 8 8 8 8 8 8 8 8 8 8 8 8 8 7 7 7 7 7 7 7 7 7 7 7 7 7 7 7 7 7 7 7 7 7
8 8 8 8 8 8 8 8 8 8 8 8 8 8 8 7 7 7 7 7 7 7 7 7 7 7 7 7 7 7 6 6 6 6 6 6 6 6 6 7 7 6 6
8 8 8 8 8 8 8 7 7 7 7 7 7 7 7 7 7 7 7 7 7 7 6 6 6 6 6 6 6 6 6 6 6 5 5 5 5 5 6 6 6 6 6
7 7 7 8 8 7 7 7 7 7 7 7 7 7 7 7 7 6 6 6 6 6 6 6 6 6 6 6 6 6 6 5 5 5 5 5 5 4 5 5 5 5 5
7 7 7 7 7 7 7 7 7 6 6 6 6 6 6 6 6 6 6 6 6 6 5 5 5 5 5 5 5 5 5 5 5 5 4 4 4 4 4 4 5 5 5
7 7 7 7 7 7 7 6 6 6 6 6 6 6 6 6 6 5 5 5 5 5 5 5 5 5 5 5 5 5 5 5 5 4 4 4 4 4 3 3 4 4 4
6 6 6 6 6 6 6 6 6 6 6 5 5 5 5 5 5 5 5 5 5 5 5 5 5 4 4 4 4 4 4 4 4 4 4 4 3 3 3 3 3 3 3
6 6 6 6 6 6 6 5 5 5 5 5 5 5 5 5 5 4 4 4 4 5 5 4 4 4 4 4 4 4 4 4 4 4 3 3 3 3 3 3 2 2 2
5 5 5 5 5 5 5 5 5 5 5 4 4 4 4 4 4 4 4 4 4 4 4 4 4 4 4 4 4 4 3 3 3 3 3 3 3 2 2 2 2 2 1
5 5 5 5 5 5 5 5 4 4 4 4 4 4 4 4 4 4 4 4 4 4 4 4 4 4 3 3 3 3 3 3 3 3 3 2 2 2 2 2 2 2 1
5 5 5 5 5 5 4 4 4 4 4 4 4 4 4 4 4 4 4 3 4 3 3 3 3 3 3 3 3 3 3 3 2 2 2 2 2 2 2 2 1 1 1
5 4 4 4 4 4 4 4 4 3 3 3 3 3 3 3 3 3 3 3 3 3 3 3 3 3 3 2 2 2 2 2 2 2 2 2 1 1 1 1 1 1 1
4 4 4 4 4 4 3 3 3 3 3 3 3 3 3 3 3 3 3 3 3 3 3 3 2 2 2 2 2 2 2 1 1 1 1 1 1 1 1 1 1 1 1
4 4 3 3 3 3 3 3 3 2 2 2 2 3 3 3 3 3 3 2 2 2 2 2 2 2 2 1 1 1 1 1 1 1 1 1 1 0 0 0 0 0 -0
3 3 3 3 3 3 3 2 2 2 2 2 2 2 2 2 2 2 2 2 2 2 2 2 1 1 1 1 1 1 1 0 0 0 0 0 0 0 -0 -0 -0 -0 -0
2 2 2 2 2 2 2 2 2 1 1 1 1 2 2 2 2 2 1 1 1 1 1 1 1 1 1 1 0 0 0 0 -0 -0 -0 -0 -0 -0 -0 -0 -1 -1 -1
2 2 2 2 2 2 2 2 1 1 1 1 1 1 1 1 1 1 1 1 1 1 1 1 1 0 0 0 0 -0 -0 -0 -0 -1 -1 -1 -1 -1 -1 -1 -1 -1 -1
2 2 2 1 1 1 1 1 1 1 1 1 1 1 1 1 1 1 1 0 0 0 0 0 0 -0 -0 -0 -1 -1 -1 -1 -1 -1 -1 -1 -1 -1 -1 -1 -1 -1 -2
1 1 1 1 1 1 1 1 1 1 0 0 0 0 0 0 0 0 0 -0 -0 -0 -0 -0 -0 -1 -1 -1 -1 -1 -1 -1 -1 -1 -1 -1 -1 -1 -2 -2 -2 -2 -2
1 1 1 1 1 1 0 0 0 0 -0 -0 -0 -0 -0 -0 -0 -0 -0 -0 -1 -1 -1 -1 -1 -1 -1 -1 -2 -2 -2 -2 -2 -2 -2 -2 -2 -2 -2 -2 -2 -2 -2
1 1 0 0 0 0 -0 -0 -0 -0 -0 -0 -0 -0 -1 -1 -1 -1 -1 -1 -1 -1 -1 -1 -2 -2 -2 -2 -2 -2 -2 -2 -2 -2 -2 -2 -2 -2 -3 -3 -3 -3 -3
0 0 0 -0 -0 -0 -0 -1 -1 -1 -1 -1 -1 -1 -1 -1 -1 -1 -1 -2 -2 -2 -2 -2 -2 -2 -2 -2 -2 -2 -2 -3 -2 -2 -3 -3 -3 -3 -3 -3 -3 -3 -3
-0 -0 -0 -0 -0 -1 -1 -1 -1 -1 -1 -1 -1 -1 -1 -1 -2 -2 -2 -2 -2 -2 -3 -3 -3 -3 -3 -3 -3 -3 -3 -3 -3 -3 -3 -3 -3 -3 -3 -3 -4 -4 -4
-0 -1 -1 -1 -1 -1 -1 -1 -1 -2 -2 -2 -2 -2 -2 -2 -2 -2 -2 -2 -3 -3 -3 -3 -3 -3 -3 -3 -3 -3 -3 -3 -3 -3 -3 -3 -3 -3 -4 -4 -4 -4 -4
-1 -1 -1 -1 -1 -1 -2 -2 -2 -2 -2 -2 -2 -2 -2 -2 -2 -2 -3 -3 -3 -3 -3 -3 -3 -3 -3 -3 -4 -4 -4 -4 -4 -4 -4 -4 -4 -4 -4 -4 -4 -4 -4
-1 -2 -2 -2 -2 -2 -2 -2 -2 -2 -2 -2 -2 -3 -3 -3 -3 -3 -3 -3 -3 -4 -4 -4 -4 -4 -4 -4 -4 -4 -4 -4 -4 -4 -4 -4 -4 -4 -4 -4 -4 -5 -5
Wind_Speed
5 3 3 3 3 2 3 3 3 2 3 2 2 2 2 1 1 1 1 2 2 2 2 2 2 1 2 2 2 1 1 1 1 1 2 2 2 1 1 1 1 2 2
3 2 2 3 4 4 4 3 3 3 3 3 2 2 2 1 1 1 0 1 1 2 2 2 2 1 2 1 2 2 1 1 1 1 1 1 3 2 1 1 1 1 2
7 5 4 4 4 4 5 4 4 3 3 2 2 1 1 0 1 1 1 1 1 2 2 2 2 2 2 2 3 3 3 2 1 1 2 1 2 2 2 1 1 0 1
6 6 5 4 5 5 4 4 4 3 3 3 3 4 3 2 2 2 2 1 1 2 2 3 3 2 2 3 3 3 3 3 2 1 0 1 1 1 2 2 2 1 1
7 6 6 6 5 4 4 4 4 3 3 3 4 4 3 3 2 1 2 2 1 1 2 2 2 2 2 3 3 3 3 3 4 3 1 1 0 1 2 3 3 3 2
5 5 4 4 3 2 3 3 4 3 3 3 3 4 4 3 3 2 3 2 2 1 1 2 2 2 2 3 3 3 4 4 3 3 3 3 2 2 2 3 3 3 3
4 4 4 4 3 3 3 3 4 3 4 4 4 4 5 5 5 5 4 4 3 2 3 2 2 3 3 3 3 3 4 4 4 4 3 3 3 2 2 3 3 3 3
4 5 6 5 5 4 4 3 4 3 4 4 4 4 4 4 4 5 4 5 4 4 4 3 3 3 3 3 3 3 3 3 4 4 4 3 3 3 3 3 2 3 3
5 5 5 5 5 5 5 5 4 4 4 4 4 4 4 4 4 4 4 4 4 3 3 3 3 3 3 3 3 3 3 3 3 4 4 3 3 2 3 3 3 3 4
4 4 5 5 5 5 4 3 4 3 3 3 3 3 4 4 4 4 4 4 4 3 3 3 3 3 3 3 3 2 3 3 3 3 3 4 3 3 3 3 4 4 4
5 5 4 4 3 3 3 2 2 1 2 2 2 2 2 3 3 4 4 4 3 3 3 4 3 3 3 3 3 3 3 3 3 2 3 4 3 3 3 3 3 4 4
4 4 3 3 3 3 2 2 2 2 2 2 1 1 2 2 2 3 4 3 3 3 3 3 3 3 3 3 3 3 3 3 3 3 3 4 3 3 3 3 3 4 4
3 2 2 3 3 3 3 2 2 2 1 1 1 1 1 2 2 3 3 3 3 3 3 3 3 3 3 3 3 4 4 4 4 4 4 4 3 3 3 3 3 3 3
2 2 2 3 3 3 3 3 2 1 1 0 1 1 1 1 2 2 2 3 3 3 2 2 2 2 2 3 3 3 3 3 3 3 4 4 4 5 4 4 4 3 3
2 2 3 2 2 2 2 2 2 1 1 0 0 1 1 1 1 1 1 2 2 2 2 2 1 1 1 2 3 3 3 3 2 2 3 3 4 6 5 4 3 3 3
3 3 2 2 3 3 3 2 2 1 1 1 1 0 1 1 1 1 1 2 2 2 1 1 1 1 1 2 2 2 2 2 2 2 3 3 3 4 5 6 6 5 5
4 3 3 3 3 3 3 3 2 1 1 1 1 1 1 1 1 1 2 1 2 2 1 1 1 1 2 2 2 2 1 2 2 2 2 2 2 3 2 4 5 5 6
4 3 3 2 2 2 2 1 1 1 1 1 1 1 1 1 1 1 1 1 1 1 1 1 1 1 2 2 2 2 1 2 2 3 3 3 3 3 3 3 3 3 3
4 3 3 2 1 1 2 2 1 2 2 1 1 1 1 1 1 1 1 0 1 1 1 1 1 1 2 3 2 2 1 1 2 2 2 2 3 5 5 3 3 3 3
2 2 1 0 1 1 2 3 2 2 2 2 1 1 2 2 2 2 1 0 1 1 0 1 1 2 2 3 3 2 1 1 2 2 2 4 4 6 5 3 3 4 3
1 1 1 1 1 1 2 2 2 2 2 1 1 1 1 1 2 2 1 1 1 1 0 1 1 1 2 3 3 3 1 1 2 2 2 2 5 6 5 4 3 4 3
1 1 1 0 1 1 2 2 2 2 1 1 1 1 1 1 1 2 1 1 1 1 0 0 1 1 1 2 3 3 2 2 2 2 2 3 5 5 5 3 3 5 3
1 1 1 0 1 0 2 2 2 1 1 1 1 1 1 1 2 2 2 1 1 1 1 1 1 2 1 2 3 3 3 3 1 2 3 4 4 4 3 3 4 3 1
1 1 1 1 1 1 0 1 1 1 1 1 1 2 2 1 1 1 2 1 1 1 1 1 2 2 2 2 1 1 1 2 1 1 2 3 3 3 3 3 2 1 1
1 1 1 1 2 1 0 1 1 1 1 1 1 1 1 1 1 0 1 1 2 3 2 2 2 2 2 3 3 2 1 1 1 1 0 0 1 1 1 1 1 1 1
1 0 1 1 1 1 1 1 1 1 2 1 1 1 1 1 1 0 1 1 1 2 3 3 3 2 4 5 5 4 3 3 2 1 1 1 1 1 2 2 2 1 2
Wind_Direction
240 215 192 185 173 175 176 182 178 186 171 171 178 183 203 219 196 140 160 162 156 150 132 129 127 137 169 184 169 152 135 112 103 77 5 342 336 327 324 354 45 32 24
230 209 191 180 181 186 189 189 186 187 193 195 192 187 192 207 212 188 172 192 174 166 162 152 159 164 164 164 172 150 156 152 117 119 108 337 332 324 322 354 80 20 25
213 212 204 197 192 196 198 196 197 191 196 189 165 139 122 116 210 230 243 257 218 183 177 176 167 173 171 191 196 182 169 182 180 136 147 167 246 305 313 299 308 319 347
213 209 206 205 206 210 205 193 194 194 190 173 168 173 190 212 228 226 225 239 220 194 192 180 174 176 181 197 203 185 185 175 189 202 160 183 175 211 306 313 311 310 294
214 211 208 207 213 211 201 197 190 192 185 180 182 183 196 212 218 218 213 225 218 205 198 185 178 187 195 201 204 196 190 189 188 186 185 175 199 201 221 278 304 316 294
216 212 209 200 209 203 191 188 190 196 189 189 196 198 199 199 198 218 220 228 226 222 220 197 191 202 206 203 203 197 198 198 197 197 191 186 188 205 215 252 276 289 297
208 205 204 200 203 196 194 192 192 204 200 200 208 212 207 201 206 215 220 222 222 224 228 217 211 214 216 208 201 194 211 207 202 206 214 208 209 207 218 244 271 283 295
213 210 209 206 206 204 198 193 199 211 207 210 220 220 214 213 218 219 219 221 221 222 216 213 216 220 214 206 201 199 213 210 210 215 212 209 215 213 212 222 244 280 288
228 220 212 210 207 204 203 200 201 208 212 218 222 221 218 215 217 219 218 225 226 220 210 207 207 215 208 200 188 205 214 207 209 213 212 215 221 220 223 224 223 228 264
235 229 217 214 210 206 204 198 200 207 219 220 222 227 223 216 211 208 210 216 217 209 200 206 205 207 207 195 182 202 211 204 220 215 215 226 225 227 227 224 231 229 235
236 231 225 215 206 200 190 194 200 200 214 216 225 226 223 212 203 199 206 212 208 197 200 208 203 204 208 202 193 204 204 205 220 228 227 241 233 228 233 231 234 236 230
241 233 218 202 196 200 198 198 202 210 220 211 205 207 196 193 195 200 206 199 198 202 202 198 197 203 206 205 202 206 210 213 223 229 227 245 246 242 241 235 242 242 235
253 240 220 210 206 207 208 211 214 218 237 201 175 173 186 191 199 208 205 193 192 197 193 190 200 208 206 206 206 209 216 219 227 230 230 240 236 248 252 247 249 250 249
259 239 235 229 219 213 208 210 225 221 211 170 162 175 201 204 191 189 186 185 178 180 183 187 199 208 209 210 210 215 220 221 232 239 238 240 234 238 246 252 248 245 242
294 256 237 235 229 222 220 215 225 223 175 150 193 216 197 161 128 126 152 160 163 173 171 171 186 200 212 209 202 212 210 212 230 248 253 252 252 253 254 252 244 235 240
263 269 252 232 230 225 225 215 225 224 164 164 204 244 113 115 117 115 126 138 142 141 141 162 178 227 250 246 245 228 203 209 218 248 264 265 268 278 283 278 273 261 244
252 247 250 235 232 227 218 213 221 199 163 169 174 157 135 128 113 106 108 123 126 125 130 154 157 249 261 274 270 266 222 211 223 236 255 277 279 287 270 287 295 289 277
242 244 244 259 251 227 212 196 187 174 165 170 183 175 154 141 112 96 104 119 115 127 146 195 200 229 275 294 289 287 245 219 233 236 237 249 262 261 257 259 277 271 270
237 239 232 240 248 231 195 160 175 166 158 188 208 206 178 160 146 157 195 170 122 141 176 197 207 230 275 287 289 301 210 232 249 251 247 253 260 271 274 261 265 273 271
228 224 209 200 226 251 169 151 174 176 196 215 213 201 180 178 188 196 205 210 165 172 180 255 239 237 258 279 295 300 218 248 269 272 265 269 274 279 281 252 245 262 269
229 191 180 201 237 225 150 159 179 210 226 210 175 160 171 191 194 186 185 169 146 123 141 253 269 248 261 277 287 293 246 230 256 270 275 277 287 287 290 285 253 259 268
265 194 163 229 283 192 155 172 216 237 195 157 154 165 180 193 174 168 175 157 150 145 159 296 315 298 273 284 286 290 283 266 236 256 266 271 288 292 297 300 284 285 287
254 242 172 198 311 276 165 186 235 192 139 137 170 182 175 186 173 166 167 162 162 181 211 219 273 302 309 295 304 304 301 292 275 257 273 286 296 308 309 300 297 298 281
237 213 166 188 290 308 189 195 196 168 147 156 160 148 151 155 141 160 167 175 197 206 219 231 254 278 292 298 306 310 323 320 305 305 301 311 322 325 313 310 309 295 269
258 205 192 218 260 273 262 199 176 154 145 155 154 141 138 141 131 118 204 209 222 220 224 229 228 241 269 286 302 312 295 263 245 284 271 336 321 323 316 309 300 291 295
232 211 212 222 258 239 244 242 179 162 154 169 170 164 159 151 145 130 357 331 268 273 272 265 263 266 269 287 298 302 299 299 296 319 280 283 284 286 294 295 294 284 280
Height
1486 1487 1488 1489 1490 1492 1493 1494 1496 1497 1499 1500 1501 1501 1502 1503 1504 1505 1506 1507 1508 1509 1509 1510 1510 1511 1512 1513 1513 1514 1514 1515 1515 1516 1516 1517 1517 1518 1518 1518 1518 1519 1519
1482 1483 1485 1486 1486 1488 1489 1491 1492 1494 1495 1496 1498 1498 1499 1500 1501 1502 1503 1504 1505 1505 1506 1507 1507 1508 1509 1509 1510 1511 1511 1512 1512 1513 1513 1513 1514 1514 1515 1515 1515 1516 1516
1478 1479 1481 1482 1483 1484 1486 1487 1488 1490 1491 1493 1494 1495 1496 1497 1498 1498 1499 1500 1501 1502 1503 1503 1504 1505 1506 1506 1507 1508 1508 1509 1510 1511 1512 1512 1511 1511 1511 1511 1512 1513 1513
1474 1475 1477 1478 1480 1481 1483 1484 1485 1487 1488 1489 1490 1491 1492 1492 1494 1495 1496 1497 1498 1499 1499 1500 1501 1502 1503 1503 1504 1504 1505 1506 1506 1508 1508 1510 1509 1510 1508 1508 1509 1509 1510
1470 1472 1473 1475 1476 1478 1479 1481 1482 1483 1484 1486 1487 1488 1489 1490 1491 1492 1493 1493 1494 1495 1496 1497 1497 1498 1499 1500 1500 1500 1501 1502 1502 1503 1504 1505 1506 1506 1506 1504 1504 1505 1506
1467 1468 1470 1472 1473 1475 1476 1477 1478 1479 1481 1482 1483 1484 1485 1486 1487 1488 1489 1490 1491 1492 1492 1493 1494 1495 1495 1496 1496 1497 1497 1498 1499 1500 1500 1501 1502 1502 1503 1502 1500 1500 1501
1464 1465 1467 1468 1469 1471 1472 1473 1474 1475 1477 1478 1479 1480 1481 1482 1483 1484 1485 1486 1487 1488 1489 1490 1490 1491 1492 1492 1493 1493 1494 1494 1495 1496 1496 1497 1498 1499 1500 1499 1498 1497 1496
1462 1463 1464 1465 1466 1467 1469 1470 1471 1472 1473 1474 1475 1476 1477 1478 1479 1480 1481 1482 1483 1484 1485 1486 1487 1487 1488 1488 1489 1489 1490 1490 1491 1492 1492 1493 1493 1495 1495 1496 1496 1494 1493
1460 1461 1462 1463 1463 1464 1465 1467 1467 1468 1469 1470 1471 1472 1473 1474 1475 1476 1477 1478 1480 1481 1482 1483 1483 1484 1484 1485 1485 1486 1486 1487 1487 1488 1488 1488 1489 1490 1491 1492 1493 1493 1490
1458 1459 1459 1460 1461 1462 1463 1464 1465 1465 1466 1467 1467 1468 1469 1470 1471 1472 1473 1474 1476 1477 1478 1479 1479 1480 1481 1481 1481 1482 1482 1483 1483 1484 1484 1485 1485 1486 1487 1487 1488 1488 1488
1455 1456 1456 1458 1459 1459 1460 1461 1462 1462 1463 1463 1464 1464 1465 1465 1466 1467 1469 1470 1472 1473 1474 1475 1476 1476 1477 1477 1477 1478 1479 1479 1479 1480 1480 1481 1481 1481 1482 1482 1483 1483 1483
1453 1454 1454 1455 1456 1457 1457 1458 1459 1459 1460 1460 1460 1461 1462 1462 1463 1464 1465 1467 1468 1469 1470 1471 1471 1472 1473 1473 1474 1474 1475 1475 1475 1476 1477 1477 1477 1477 1478 1478 1478 1478 1478
1451 1451 1452 1452 1453 1454 1455 1456 1456 1457 1457 1457 1457 1458 1458 1459 1460 1461 1462 1463 1464 1465 1466 1467 1467 1468 1469 1469 1470 1470 1471 1471 1472 1473 1473 1474 1474 1474 1474 1474 1473 1473 1473
1450 1449 1450 1450 1451 1451 1452 1453 1453 1454 1454 1454 1454 1455 1455 1456 1456 1457 1458 1460 1461 1461 1462 1463 1464 1465 1465 1465 1466 1466 1467 1468 1469 1469 1470 1470 1470 1470 1470 1470 1469 1469 1469
1448 1448 1448 1448 1449 1449 1450 1450 1451 1451 1452 1452 1452 1452 1453 1453 1454 1454 1455 1456 1457 1458 1459 1460 1461 1461 1462 1462 1463 1463 1464 1464 1465 1466 1466 1466 1466 1466 1466 1466 1465 1465 1465
1446 1446 1447 1447 1447 1447 1447 1448 1448 1449 1449 1450 1450 1451 1451 1451 1451 1452 1452 1453 1454 1455 1456 1457 1458 1458 1459 1459 1460 1460 1461 1461 1461 1461 1462 1462 1462 1462 1462 1462 1462 1461 1461
1445 1445 1445 1445 1445 1445 1445 1446 1446 1446 1447 1447 1448 1448 1448 1448 1449 1449 1450 1451 1451 1452 1453 1454 1455 1455 1456 1457 1457 1457 1457 1458 1458 1458 1458 1458 1458 1458 1458 1458 1457 1457 1457
1443 1443 1443 1443 1443 1443 1443 1444 1444 1444 1445 1445 1445 1445 1446 1447 1447 1447 1448 1448 1449 1450 1450 1451 1452 1453 1453 1454 1454 1454 1454 1454 1455 1455 1455 1454 1454 1454 1454 1454 1453 1453 1453
1441 1441 1441 1440 1440 1440 1441 1441 1441 1441 1442 1443 1443 1444 1444 1444 1445 1445 1445 1446 1446 1447 1448 1449 1449 1450 1450 1451 1451 1451 1451 1451 1451 1452 1451 1451 1451 1450 1450 1450 1449 1449 1448
1438 1438 1438 1438 1438 1438 1438 1438 1438 1438 1439 1440 1441 1442 1442 1442 1443 1443 1444 1444 1444 1445 1445 1446 1447 1447 1447 1448 1448 1448 1448 1448 1448 1448 1448 1448 1447 1447 1447 1446 1445 1444 1444
1436 1436 1436 1435 1435 1435 1436 1436 1436 1436 1437 1438 1439 1439 1440 1440 1441 1441 1442 1442 1442 1442 1443 1443 1444 1444 1445 1445 1445 1445 1445 1445 1445 1445 1444 1444 1444 1444 1443 1443 1442 1441 1441
1433 1433 1433 1433 1433 1434 1434 1433 1433 1434 1435 1435 1436 1436 1437 1438 1439 1439 1439 1440 1440 1440 1440 1441 1441 1442 1442 1443 1443 1443 1443 1442 1442 1441 1441 1441 1441 1440 1440 1439 1439 1438 1438
1431 1431 1431 1431 1431 1431 1432 1431 1432 1432 1432 1432 1433 1433 1434 1435 1436 1437 1437 1437 1438 1438 1438 1438 1438 1439 1440 1440 1440 1440 1440 1440 1439 1439 1438 1438 1438 1437 1437 1436 1436 1435 1435
1429 1430 1430 1429 1429 1429 1430 1430 1430 1430 1430 1430 1430 1430 1431 1433 1434 1435 1435 1435 1436 1436 1436 1436 1436 1436 1437 1437 1437 1437 1437 1437 1436 1436 1435 1435 1435 1434 1433 1433 1433 1432 1432
1427 1428 1428 1428 1428 1428 1428 1428 1428 1428 1428 1428 1428 1429 1430 1431 1432 1433 1433 1434 1434 1434 1434 1434 1435 1434 1434 1435 1435 1435 1434 1434 1433 1433 1432 1432 1431 1431 1430 1430 1430 1429 1429
1426 1426 1426 1426 1426 1425 1426 1426 1426 1426 1426 1426 1427 1428 1428 1429 1430 1430 1431 1432 1432 1432 1432 1433 1433 1433 1433 1433 1433 1432 1432 1431 1431 1430 1429 1429 1428 1428 1427 1427 1427 1426 1426